Вернуться в каталог

ARIANE 2 DEB

LostHEO
NORAD 28568·DEBRIS·🇫🇷 France

Запущен Jan 27, 1989 с Guiana Space Centre

Loading…

Ближайшие Пролёты (ближайшие 24 часа)

TLE

УстаревшееSource: Space-Track

Эпоха: Sep 17, 2015, 10:44 UTC

1 28568U 89006AK  15260.44768753  .00000014  00000-0  10000-3 0  9999
2 28568  11.7365   0.1124 6212483 317.8807   8.4652  2.24021894 90356

Отслеживайте ARIANE 2 DEB в реальном времени с AllMySat

Download on the App Store